Weather in Cumana

Venezuela     10°27′31″N   64°10′26″W
temp.,
°C
wind,
m/s
gust,
m/s
humid.,
%
clouds,
%
prec.,
mm/h
press.,
hPa
HPBL,
m
3 august, tue
tue323:00+26sw33805 1.6 1017126
02:00+25ssw23775 2.0 1016161
05:00+25sse337826 0.1 1015122
08:00+26sse227356 0.2 1017169
11:00+27nne116468 0.6 1017332
14:00+28nnw116186 1.1 1015541
17:00+28ne116795 0.6 1014299
20:00+26sse1276100 1.8 101643
4 august, wed
wed423:00+26sw3377100 0.9 1017155
02:00+25ssw2277100 1.1 1015158
05:00+25sse2276100 0.1 1016131
08:00+26sse227136 0.3 1017180
11:00+27wnw216616 0.4 1017423
14:00+28n116426 1.1 1015540
17:00+28ene446724 0.7 1014533
20:00+27e35774 0.8 1016145
5 august, thu
thu523:00+26ese34794 0.3 1017209
02:00+25sse22760 0.4 1016140
05:00+25s22734 0.0 1016124
08:00+26s01710 0.1 1018171
11:00+27nnw22690 0.0 1018422
14:00+27wnw32694 0.2 1015464
17:00+28n22680 0.0 1014381
20:00+27e45770 0.1 1016185
6 august, fri
fri623:00+26ese34800 0.1 1017176
02:00+26ese23800 0.5 1015147
05:00+25sse22760 0.1 1016101
08:00+26sse11710 0.1 1017161
11:00+27nnw21680 0.0 1017384
14:00+28nnw22663 0.2 1015409
17:00+29nne34665 0.2 1014353
20:00+27e57785 0.8 1015283
7 august, sat
sat723:00+26e478232 0.4 1016315
02:00+26ese357948 1.3 1014236
05:00+25se237545 0.0 1014184
08:00+26se127012 0.0 1015202
11:00+28nnw11656 0.0 1016346
14:00+29nw22655 0.0 1014491
17:00+29nne336653 0.0 1013386
20:00+27ene688095 0.0 1014340